Simultaneous Nadir Overpasses (SNOs) Predictions

Prediction of SNOs between GOES-17 and NOAA-19 Satellite Orbit:

Table of predicted SNOs for the next 14.0 days since TLE Epoch: 12/24/2022
Index Date Time (GOES-17) GOES-17 Lat,Lon NOAA-19 Lat,Lon Distance(km) Time Diff (sec)
1 12/25/2022 05:37:41 0.00,-137.33 -0.89,-141.16 437.60 80
2 12/26/2022 05:25:46 -0.00,-137.33 -0.22,-138.26 106.42 80
3 12/27/2022 05:16:30 -0.01,-137.32 0.45,-135.35 224.77 80
4 12/29/2022 17:34:09 0.01,-137.31 0.68,-140.17 326.81 80
5 12/30/2022 17:22:14 0.01,-137.30 0.02,-137.26 4.47 80
6 12/31/2022 17:12:58 0.01,-137.29 -0.64,-134.35 334.83 80
7 01/03/2023 05:30:45 -0.01,-137.26 -0.47,-139.20 222.19 80
8 01/04/2023 05:21:30 -0.02,-137.24 0.21,-136.30 108.19 80
9 01/05/2023 05:09:33 -0.02,-137.23 0.84,-133.38 438.44 80
10 01/06/2023 17:39:09 0.02,-137.20 0.94,-141.11 446.95 80
